Vorticity
-1 6 5 6 9 9 10 10 8 9 8 5 5 2 21 26 7 17 10 -0 6 1 4 3 3 6 5 6 5 5 5 4 8 8 5 5 5 5 7 5 4 4 3 3 3 4 5 6 6 8 6 6 5 5 7 5 6 5 6 5 4 6 5 6 5 4 6 4 5 5 5 5 5 6 5 6 6 7 7 6 8 7 8 8 9 9 8 8 8 9 9 9 8 8 9 9 9
1 7 8 8 10 7 7 10 9 8 10 5 9 1 13 29 9 13 9 0 10 3 2 1 1 3 3 5 4 5 5 5 7 7 5 5 5 5 6 5 4 4 3 3 3 4 5 5 4 6 6 5 5 5 5 5 6 5 6 6 4 6 5 5 5 5 5 5 5 5 5 5 5 6 6 6 6 7 7 6 7 7 8 8 9 9 8 7 6 7 9 9 8 9 8 9 9
3 6 8 11 10 8 7 9 10 8 10 6 10 6 8 21 9 10 7 4 10 2 1 -0 0 2 4 3 3 6 5 6 6 6 5 6 7 6 6 6 4 3 4 3 3 3 4 5 4 4 5 5 5 5 5 5 6 5 5 6 5 5 5 5 5 5 4 4 4 5 5 6 6 6 6 6 5 6 7 7 6 7 7 7 7 7 7 6 6 6 8 9 8 9 9 10 9
5 4 7 12 8 7 8 7 12 9 9 7 7 6 6 14 12 12 7 5 6 1 3 2 2 4 5 3 2 5 7 10 7 4 5 5 6 6 6 5 5 4 3 3 3 3 3 5 4 3 4 5 5 5 5 4 5 5 5 5 5 5 5 5 5 5 4 4 4 5 6 6 6 6 6 5 5 5 6 7 6 6 6 7 6 5 5 5 6 6 7 8 8 9 9 10 9
6 4 6 8 7 8 8 5 10 9 7 9 10 7 4 11 15 15 9 7 6 2 4 2 1 3 4 4 3 4 8 12 8 4 4 6 4 6 8 6 5 5 4 3 3 3 3 4 4 3 3 4 5 5 5 5 5 5 5 4 4 4 5 5 5 5 5 5 5 5 5 5 5 5 5 5 6 6 6 6 5 6 6 6 5 4 5 6 7 6 6 5 7 9 10 10 10
7 6 4 3 7 8 8 7 7 7 11 12 12 10 6 12 16 13 12 12 6 4 7 3 1 4 5 4 2 2 7 12 10 6 4 7 6 5 7 7 6 4 5 3 3 4 3 4 4 4 3 4 5 6 6 5 5 5 5 4 4 4 4 5 5 4 4 4 4 4 4 5 6 6 6 6 6 6 5 5 4 5 5 5 5 4 4 5 6 6 6 5 5 9 10 11 11
7 7 6 2 4 5 5 8 7 6 13 13 9 9 10 15 12 7 14 16 10 9 6 -0 3 6 5 6 4 3 7 12 12 7 5 8 8 5 6 7 6 5 5 4 4 4 3 4 4 4 4 5 5 6 6 6 6 6 5 5 4 4 4 4 4 4 4 4 4 4 5 5 6 6 6 7 6 6 5 4 4 4 4 5 6 5 4 5 5 5 5 5 4 7 8 8 10
5 7 7 1 3 5 3 6 7 6 9 12 9 6 12 18 9 4 12 17 14 12 4 -1 3 5 4 5 5 6 10 12 10 8 6 7 8 5 6 7 6 6 4 5 5 4 4 4 4 5 5 5 6 6 8 8 8 8 8 7 6 5 5 4 4 4 4 4 5 5 5 6 5 6 6 7 6 6 5 5 5 5 5 5 6 5 4 5 5 6 6 7 5 6 8 8 9
2 6 5 1 5 6 5 7 8 8 6 11 15 9 15 22 10 2 9 16 12 5 3 2 2 3 4 5 5 6 12 12 8 8 6 6 9 6 6 7 6 6 5 5 5 4 4 4 4 5 6 6 6 7 8 8 8 9 9 9 8 7 6 5 5 5 5 5 5 5 5 6 5 6 6 6 5 6 6 6 5 5 5 5 5 4 4 5 6 7 7 7 6 6 7 8 8
3 5 5 2 4 5 8 8 7 10 5 6 13 13 17 18 7 -1 6 15 9 2 6 4 0 3 4 5 6 6 13 11 4 6 7 7 8 7 7 7 6 6 5 5 5 6 5 5 5 4 5 6 7 8 7 6 5 6 7 8 9 8 8 7 6 5 5 5 5 5 6 6 5 5 6 5 6 6 6 6 5 5 4 4 4 4 4 6 7 8 7 7 6 4 4 7 8
6 4 5 3 4 5 8 9 8 10 8 10 12 17 18 12 9 1 3 13 6 4 9 4 0 3 3 3 5 5 11 10 5 3 5 8 8 8 8 6 6 6 6 5 5 6 6 5 5 5 5 5 7 8 6 5 5 6 6 7 8 8 8 7 7 6 5 5 5 6 6 5 4 5 5 6 6 6 6 5 4 4 3 4 3 3 4 6 6 7 7 6 5 3 3 6 7
8 6 5 5 9 7 9 10 10 10 10 15 14 21 18 4 9 2 4 12 4 3 6 7 5 3 3 3 4 5 7 9 9 5 3 7 8 9 9 7 7 7 7 6 5 5 7 7 6 5 5 5 6 8 6 4 4 5 6 6 7 6 7 6 6 6 5 5 5 5 5 4 5 5 6 6 6 6 6 5 4 4 4 4 4 5 6 7 7 6 6 5 5 3 4 6 7
10 9 8 8 11 9 11 12 10 9 11 18 12 17 13 4 10 -1 6 11 -1 5 5 6 8 5 3 2 5 4 4 6 10 10 6 5 7 9 8 9 9 9 9 7 6 5 7 8 8 7 6 6 5 7 7 5 4 5 5 6 6 6 6 6 6 6 5 5 4 4 4 5 6 6 6 7 6 5 6 6 5 5 6 6 6 8 8 8 7 6 6 5 6 5 6 8 7
15 13 12 9 11 9 11 13 13 10 10 15 10 17 12 10 20 5 9 9 -2 7 4 2 7 9 4 1 7 5 3 5 8 12 11 7 4 6 6 7 8 8 9 8 8 6 6 7 9 10 9 8 6 6 7 6 6 5 5 5 6 7 7 6 6 6 4 4 5 5 6 6 6 5 6 6 6 5 5 6 6 6 6 6 6 5 5 5 4 3 5 6 6 7 6 6 7
17 17 15 10 12 11 10 11 15 14 13 11 7 19 9 7 29 15 5 5 -0 4 2 1 5 13 8 1 6 5 4 4 6 11 13 11 4 3 4 4 5 5 6 6 7 6 5 5 7 10 10 9 8 7 6 7 7 6 6 6 7 8 7 6 5 5 5 6 6 6 6 5 5 5 5 5 5 4 4 5 5 5 6 7 4 2 4 4 2 1 3 5 6 7 6 6 7
15 17 16 13 12 12 10 11 15 15 18 15 6 10 3 9 33 20 4 5 2 1 4 5 3 11 8 0 6 6 5 4 6 9 13 15 8 4 2 2 3 3 4 4 6 6 5 4 5 7 8 9 9 8 7 7 8 8 8 8 8 7 7 6 6 6 6 6 5 5 5 4 4 4 4 4 4 4 4 3 2 2 4 6 5 4 7 5 3 4 3 5 6 6 7 5 6
12 15 16 14 11 11 11 12 16 16 15 19 17 12 6 7 17 12 5 8 5 1 7 10 4 10 10 1 4 7 5 3 4 6 11 16 14 8 4 3 3 3 5 5 5 6 6 5 5 6 7 7 8 8 7 8 9 10 10 9 8 7 7 7 7 6 5 5 4 4 4 3 4 4 4 4 4 4 4 4 3 3 3 5 5 4 6 5 3 5 4 4 4 4 6 5 4
10 11 14 13 11 12 14 12 14 18 14 14 22 24 17 7 7 10 4 2 6 5 7 11 3 7 14 4 0 7 5 4 4 5 8 12 15 14 9 6 4 6 8 8 7 7 6 6 6 7 8 8 7 7 7 9 10 11 10 7 6 6 6 5 5 4 4 3 3 3 3 3 3 4 4 4 4 3 4 5 4 3 2 3 4 5 5 5 5 5 5 4 5 4 5 5 4
10 8 11 12 9 13 17 16 13 15 15 13 17 21 20 13 7 8 5 -0 3 5 4 8 4 4 12 5 -0 5 4 3 3 3 6 8 12 14 13 12 9 9 10 10 10 8 7 7 9 9 9 10 10 10 10 10 10 8 7 5 4 5 4 4 4 4 4 3 4 4 3 4 3 4 4 4 4 4 4 4 4 4 3 3 3 3 3 4 5 6 6 6 6 5 6 5 4
10 7 9 12 7 9 15 18 17 14 13 12 16 18 19 19 13 10 12 9 6 11 7 3 4 5 9 7 3 3 4 4 2 2 4 4 7 10 12 12 11 10 10 10 9 9 9 9 11 10 9 10 11 12 10 9 7 5 5 4 4 4 4 4 3 3 3 3 4 4 4 4 4 5 4 4 4 4 4 3 4 5 4 5 3 1 1 3 6 6 7 9 9 8 7 5 5
9 8 7 11 7 6 11 15 18 17 12 9 11 14 14 17 16 15 18 16 11 19 20 13 11 10 10 9 6 4 4 4 2 2 3 3 4 6 10 10 10 9 9 8 7 8 8 9 9 7 6 6 7 8 7 6 5 5 5 4 4 4 4 3 3 3 3 3 4 4 4 4 4 4 4 4 4 3 3 3 4 4 5 5 2 1 3 5 6 7 7 8 10 11 9 9 8
6 9 6 9 6 5 8 10 15 18 17 11 9 11 11 11 11 11 13 11 6 7 16 23 25 22 19 13 6 5 6 4 4 4 2 3 3 3 7 9 8 8 7 6 5 6 5 6 6 4 3 3 4 4 5 5 5 5 4 4 4 3 3 3 3 3 3 3 3 4 4 4 4 3 3 3 3 3 3 3 4 3 5 3 -0 3 6 8 6 6 9 10 9 10 9 10 11
2 6 5 7 5 3 6 7 10 15 19 16 12 11 11 11 10 10 11 9 6 3 4 14 24 29 27 16 4 4 6 3 4 5 3 4 4 3 4 5 6 6 6 5 4 4 4 5 6 5 3 3 4 4 5 5 5 5 3 3 3 3 3 3 3 3 4 4 3 4 5 4 3 3 3 3 3 3 3 5 5 5 6 4 2 6 10 10 7 7 10 9 8 9 12 12 12
3 3 4 4 1 2 4 5 5 7 14 17 14 12 12 12 11 11 13 15 18 16 5 7 21 28 24 13 6 6 4 3 3 4 3 4 6 5 3 2 3 4 5 5 3 4 3 4 5 4 3 3 4 4 4 4 4 4 3 3 3 3 3 3 4 3 4 4 3 4 5 4 4 4 4 5 5 5 6 6 6 6 6 5 3 6 8 6 6 8 7 7 8 10 15 15 13
5 3 2 0 -1 1 2 3 4 3 6 12 14 12 11 12 12 10 13 18 23 25 16 12 21 22 14 9 7 6 3 1 1 3 3 3 5 7 7 4 2 2 4 4 3 4 4 3 4 4 3 3 3 4 4 3 4 4 4 4 3 4 4 4 4 4 4 4 4 4 4 4 4 4 4 5 5 5 6 5 5 5 6 6 4 5 6 3 4 8 7 8 8 9 13 14 13
6 4 2 -1 -1 1 2 2 3 3 3 5 10 12 11 10 11 9 13 18 17 18 18 15 18 16 10 7 6 6 6 3 -0 1 2 3 5 7 10 10 7 4 3 4 3 3 5 4 3 5 4 4 3 3 4 4 4 4 5 4 4 4 4 4 3 3 3 3 4 3 4 4 4 4 4 3 4 4 4 4 4 4 5 5 5 6 5 3 5 9 8 8 7 8 9 9 12
6 3 1 -0 0 1 2 3 2 2 3 3 7 11 11 8 8 8 13 22 18 12 13 10 12 17 17 13 9 7 6 5 4 4 3 4 6 7 9 10 11 9 6 6 5 4 5 4 3 4 5 5 4 4 4 4 4 4 4 4 4 4 4 4 3 4 4 3 4 3 4 4 4 4 3 3 3 4 4 4 4 5 5 5 6 6 6 6 8 8 7 7 6 7 5 5 10
4 1 0 0 1 1 3 5 4 2 1 1 4 9 13 10 7 7 10 20 21 15 14 9 7 13 18 20 19 16 10 5 7 9 9 9 8 6 6 7 8 9 8 7 7 6 5 5 4 4 4 5 5 4 3 3 4 4 4 4 4 4 4 4 4 4 4 3 3 3 4 3 3 3 4 4 4 4 4 4 5 5 5 6 7 7 8 9 9 7 5 6 6 6 6 7 9
3 2 1 1 1 2 4 5 5 4 3 -1 -2 4 11 13 10 8 8 14 17 13 13 13 11 10 13 18 20 20 18 13 9 8 8 9 9 7 4 4 7 8 8 8 7 7 6 5 4 4 4 4 4 5 5 4 4 4 4 4 4 4 4 4 4 4 4 3 3 3 4 4 4 4 4 4 3 4 4 5 5 5 6 6 7 9 10 9 7 7 7 6 5 7 7 8 8
2 2 1 1 1 1 3 4 3 4 5 2 -1 1 7 10 9 7 8 10 13 12 9 11 13 12 11 13 14 14 15 12 10 9 8 7 6 7 5 2 3 5 6 7 6 7 7 5 3 4 4 4 3 4 4 5 4 4 4 4 4 4 5 4 4 4 4 4 4 4 5 5 4 4 4 4 4 4 4 6 5 4 6 5 7 12 11 7 4 5 9 8 6 8 8 7 9
1 3 1 -1 -1 -1 1 3 2 1 4 4 2 3 7 8 6 7 8 8 9 11 10 10 12 13 11 9 9 11 12 12 10 10 11 10 8 7 6 4 2 3 3 4 5 6 7 6 3 3 3 3 3 3 4 4 5 4 3 2 3 3 3 4 4 4 5 5 5 5 6 6 5 4 5 4 4 4 5 5 4 6 6 3 8 14 13 8 4 6 10 8 7 9 9 8 10
-1 3 3 0 -1 -1 1 2 0 -0 2 3 2 4 8 8 7 10 11 9 7 9 11 10 9 10 12 10 9 8 9 12 12 10 11 11 13 10 7 7 4 4 4 4 5 5 6 6 5 3 3 2 2 3 5 5 5 4 5 4 3 3 3 3 4 3 4 4 4 5 6 6 5 5 5 5 5 5 5 5 5 7 5 2 7 13 12 11 9 9 10 7 8 9 8 10 12
1 4 4 2 0 -1 1 2 1 -0 -0 1 2 6 10 9 8 12 13 11 7 7 9 8 6 7 9 9 8 7 7 9 8 10 14 10 10 11 8 8 8 6 7 7 5 3 2 4 6 7 7 6 4 5 5 4 5 5 6 7 8 9 7 5 4 4 3 3 4 5 7 7 6 6 5 5 5 6 6 6 7 8 6 1 5 9 8 11 13 11 8 7 9 9 9 12 13
5 3 3 3 2 0 0 2 2 1 -1 -0 3 7 9 8 6 8 11 12 9 8 9 8 5 5 8 7 5 6 7 9 6 6 17 16 9 8 6 6 8 8 8 8 7 6 4 3 5 7 8 8 5 4 5 6 7 7 7 8 10 10 9 8 7 6 5 5 5 6 7 8 8 7 8 7 7 8 7 7 8 9 7 2 3 7 6 10 13 10 7 9 9 9 13 15 12
5 3 3 3 2 -1 -1 2 3 1 -3 -0 6 7 4 2 5 7 6 8 10 11 10 7 6 5 8 8 6 5 5 11 13 6 12 20 14 9 8 7 7 8 8 6 6 8 7 4 4 6 7 6 5 7 8 8 8 7 7 7 8 9 9 9 10 9 8 7 7 6 6 7 6 7 8 9 8 9 9 8 7 5 4 1 2 5 6 9 11 9 8 10 9 10 15 14 10
4 4 3 2 2 -2 -3 2 6 4 -1 -1 4 8 3 -3 3 7 4 2 3 10 13 4 3 6 8 10 8 6 5 9 15 10 9 17 18 11 7 8 9 8 8 7 5 5 5 5 6 7 9 9 9 10 10 9 8 7 6 6 7 8 8 9 9 9 7 7 7 6 6 6 6 7 7 8 9 9 8 8 6 5 4 2 3 6 7 10 11 9 10 11 10 11 14 11 9
2 3 2 1 1 -1 -3 1 5 3 2 3 -0 4 6 -3 -1 4 4 1 -3 7 18 7 1 7 9 11 10 6 5 7 11 11 8 12 19 16 8 6 9 9 8 8 9 7 5 6 7 7 8 9 8 8 7 8 8 8 7 6 7 7 8 8 7 7 7 8 8 8 8 8 8 9 8 7 6 5 6 6 7 10 11 11 12 11 9 10 11 10 11 12 11 11 12 10 7
1 1 2 2 0 -1 -3 1 4 -4 1 10 1 -1 4 0 -0 3 4 1 -2 10 20 10 5 8 9 11 11 7 4 6 11 11 8 6 9 12 11 8 8 10 10 8 10 10 8 6 5 5 6 5 5 4 5 6 6 7 6 5 6 6 6 6 5 5 6 6 7 8 8 10 11 9 7 7 6 7 5 4 8 13 15 17 16 11 10 10 10 12 12 11 10 11 11 8 6
-0 -2 1 3 0 1 1 2 3 -4 -1 9 4 -1 2 1 1 5 6 -2 1 19 20 9 8 7 8 11 12 9 3 8 16 10 6 8 6 7 11 14 14 13 13 11 9 8 8 6 6 6 6 5 4 4 3 3 4 4 3 3 4 4 6 6 5 7 9 9 7 7 9 11 10 8 10 14 15 11 5 5 12 14 11 13 11 5 6 8 11 15 12 8 9 11 10 7 6
-1 -4 -0 3 -0 2 4 2 4 2 0 5 7 3 1 -1 -3 2 6 -1 7 23 15 6 9 7 6 10 13 11 5 13 20 6 1 10 11 10 10 14 21 15 10 11 10 8 6 6 6 4 4 4 3 3 2 2 4 3 3 4 4 6 7 5 6 8 8 5 -0 0 8 12 10 8 13 21 21 13 8 8 10 9 7 9 6 3 6 9 12 16 11 7 8 9 9 7 6
-1 -6 -2 4 1 2 3 1 4 4 1 7 9 6 4 -1 -3 3 3 1 14 22 9 5 9 7 8 9 11 13 9 17 20 7 8 12 8 8 5 11 27 24 12 10 11 12 11 9 9 8 7 6 6 7 5 6 7 6 5 6 8 10 10 10 10 7 4 5 2 -2 -0 7 11 8 7 10 12 8 6 6 6 6 8 9 9 9 11 12 15 15 9 6 7 7 6 5 4
-0 -6 -0 7 3 4 5 1 2 1 2 11 7 4 8 -1 -3 5 0 3 19 16 6 8 8 5 9 8 10 13 11 16 16 8 13 16 12 12 6 9 24 22 11 8 9 11 13 14 18 19 16 14 12 10 8 9 9 8 9 12 13 11 11 12 7 4 7 7 4 1 1 7 12 10 7 5 3 4 12 17 16 13 13 16 21 22 19 18 18 15 8 5 6 5 4 3 3
-2 -1 8 9 7 12 10 1 1 2 4 8 2 3 11 2 -1 4 -1 6 20 13 5 9 7 5 8 9 11 13 10 12 13 11 15 16 16 16 9 9 19 19 12 13 15 17 18 17 16 16 14 10 9 9 11 12 11 14 18 18 16 13 13 14 9 8 6 3 6 6 1 2 4 3 8 12 10 12 23 28 20 13 13 15 20 20 18 19 17 12 6 5 6 5 4 3 3
-1 11 13 4 5 12 10 5 2 1 4 6 1 2 6 4 2 1 -1 9 17 11 8 8 6 6 6 8 12 12 10 10 11 14 16 16 17 20 21 21 24 20 14 13 15 18 19 17 13 11 11 13 17 20 21 16 13 17 19 16 15 16 13 12 16 15 5 9 20 15 5 4 6 9 13 16 16 14 18 20 12 9 9 9 9 10 14 15 12 7 4 5 6 5 5 4 3
6 17 11 2 6 8 8 10 5 0 4 6 3 1 1 3 3 -2 1 12 13 9 10 8 6 7 6 8 12 12 11 10 10 13 15 16 17 19 21 20 16 11 8 9 10 12 14 14 15 13 10 14 18 18 20 17 13 16 18 15 16 20 20 18 26 35 32 33 31 27 29 20 10 14 15 11 13 12 13 14 10 10 11 11 11 12 16 13 7 4 2 4 6 5 5 4 3
10 11 10 11 10 8 11 11 6 2 3 3 5 8 5 3 1 0 7 15 11 8 11 10 6 6 6 8 11 12 11 9 10 13 14 16 16 14 12 10 9 9 9 11 11 12 13 13 14 14 11 12 9 7 15 20 18 17 16 15 15 18 25 25 23 29 37 36 25 22 30 19 4 12 16 11 13 15 14 11 11 13 14 14 13 13 15 11 5 2 -1 1 4 5 5 4 4
9 7 10 14 9 11 13 7 3 0 -0 3 6 9 8 3 1 5 11 13 11 7 7 9 9 7 6 7 9 10 11 10 9 12 15 15 13 10 9 9 10 11 11 12 12 11 12 11 11 11 11 12 10 7 12 15 17 19 19 20 19 16 20 21 15 14 16 16 14 13 16 15 13 16 16 14 12 12 12 11 13 15 13 12 12 11 11 9 5 3 0 2 4 5 5 5 5
1 6 12 12 7 9 8 2 0 -2 -1 2 3 3 2 3 5 8 8 6 11 11 5 6 7 8 9 8 7 9 10 11 11 12 13 12 10 8 9 10 9 11 11 10 9 8 9 10 8 9 10 11 11 10 9 9 10 13 16 18 18 17 17 16 13 16 15 13 15 18 17 16 14 9 10 13 11 9 8 8 10 12 11 11 9 5 4 2 3 4 5 5 6 6 5 5 5
-3 8 13 10 7 8 4 0 -0 2 5 2 1 2 2 3 3 4 6 5 11 14 8 7 7 9 12 10 7 8 10 12 12 13 13 10 8 8 9 9 8 9 9 7 8 7 8 9 8 9 10 10 11 10 8 8 6 6 8 9 10 13 16 14 13 14 14 13 13 12 9 7 7 5 5 8 10 9 6 5 6 7 8 8 5 2 1 1 4 6 7 7 6 6 5 5 6
3 12 13 8 6 7 3 -2 -4 2 7 5 5 1 -0 5 0 -0 9 6 8 15 13 11 11 11 14 12 10 9 9 12 12 12 14 10 8 7 7 8 8 8 8 7 7 8 8 9 8 8 8 9 9 10 8 7 6 5 4 4 5 7 8 9 9 8 7 6 5 5 5 4 5 4 2 3 5 5 4 5 5 5 5 6 5 5 4 5 6 6 6 6 6 6 6 6 6
5 11 12 7 4 3 2 0 -1 1 1 4 11 3 -2 5 0 5 15 1 -1 16 17 9 8 12 14 12 12 12 10 12 14 13 13 12 10 9 7 7 7 6 7 7 7 7 8 8 8 7 7 7 7 8 8 7 6 6 5 5 5 6 6 4 4 4 4 3 3 4 5 4 4 4 4 4 3 3 4 4 4 5 6 6 5 5 4 4 4 4 5 5 6 7 7 7 7
4 9 12 7 3 1 1 0 0 3 1 3 8 4 2 5 5 15 18 -3 -5 14 17 9 6 8 10 9 9 12 12 11 12 13 14 13 12 10 9 8 8 8 8 8 7 7 7 7 6 6 6 6 6 5 5 5 6 6 6 7 6 5 6 6 5 6 6 6 5 5 5 4 4 5 5 5 4 5 5 4 5 6 6 6 6 6 6 7 7 8 8 8 9 9 10 11 11
6 9 11 8 7 3 0 -0 -2 -1 3 6 8 5 4 5 7 14 12 -4 -3 12 15 11 8 5 7 10 8 8 12 12 12 13 13 14 13 11 10 9 8 10 9 9 9 7 7 7 6 7 6 6 5 4 5 5 5 6 6 6 6 5 5 5 5 6 6 6 7 7 7 7 7 7 8 7 7 7 6 7 8 8 8 9 10 10 11 12 12 12 12 12 12 12 12 12 12
7 11 9 6 9 5 0 2 2 2 2 5 5 0 1 5 3 6 8 1 1 11 14 9 6 5 9 15 12 8 11 13 12 14 15 15 16 15 14 13 11 11 10 10 10 8 7 7 6 6 5 5 6 6 6 6 7 8 8 8 8 7 8 8 8 8 9 9 8 8 8 8 7 7 7 7 7 8 8 9 9 10 11 11 11 12 11 11 11 10 10 9 9 9 10 9 9
9 13 7 3 8 6 3 3 5 8 6 4 7 5 5 7 2 0 7 8 8 13 14 7 4 6 11 19 16 7 7 7 6 10 12 10 11 11 12 13 13 13 12 10 10 10 8 7 7 6 6 6 7 8 8 8 9 8 8 8 8 7 7 8 8 8 9 8 7 7 7 7 7 7 7 7 8 9 9 9 9 10 10 10 10 9 7 7 7 7 7 8 8 9 9 10 10
14 14 9 5 8 5 4 9 8 6 6 2 7 10 5 5 6 1 2 9 14 16 14 9 8 7 8 18 18 3 -4 -0 1 4 8 9 9 9 9 10 10 11 13 12 11 12 12 11 10 10 10 10 10 10 9 8 8 7 6 6 5 6 6 6 8 8 8 7 7 8 7 7 7 7 9 9 10 10 10 10 10 9 9 8 6 6 6 6 7 7 8 8 9 10 11 13 13
21 18 12 3 4 2 1 14 14 8 10 6 1 4 -1 -0 9 4 -1 8 12 12 10 8 12 10 3 11 17 2 -8 -3 -0 1 5 6 5 6 7 8 8 7 8 10 11 11 11 11 11 11 11 10 10 9 7 6 6 5 5 6 6 7 8 8 9 9 9 9 9 9 8 8 10 10 11 12 12 11 10 10 9 8 7 7 6 6 6 7 8 9 10 11 12 13 14 14 14
21 17 15 1 2 4 -0 11 17 6 8 9 2 2 -2 -1 7 2 1 9 6 5 8 6 9 8 -0 4 10 1 -6 -2 2 0 -1 -1 -0 3 5 7 9 10 7 6 8 10 11 9 9 8 8 8 8 8 8 7 8 8 7 9 9 9 10 10 11 11 11 11 10 9 10 11 12 12 11 10 9 9 8 8 7 8 8 7 7 6 6 9 11 12 13 14 13 12 12 12 12
Height
5891 5891 5891 5891 5891 5892 5892 5891 5891 5891 5891 5890 5891 5892 5892 5891 5892 5893 5894 5895 5896 5897 5898 5899 5900 5901 5901 5901 5901 5902 5903 5903 5903 5904 5904 5904 5904 5906 5906 5906 5906 5906 5907 5907 5907 5908 5908 5909 5909 5910 5910 5909 5909 5909 5909 5909 5909 5910 5910 5910 5910 5911 5911 5911 5912 5912 5913 5914 5915 5916 5917 5918 5918 5918 5918 5918 5918 5918 5917 5917 5917 5917 5917 5916 5916 5916 5916 5916 5915 5916 5916 5915 5914 5913 5913 5913 5913
5891 5891 5890 5891 5890 5891 5891 5890 5890 5890 5890 5890 5891 5891 5891 5891 5891 5893 5894 5895 5896 5897 5898 5899 5900 5901 5901 5901 5902 5903 5903 5903 5903 5904 5905 5905 5905 5906 5907 5907 5907 5907 5908 5908 5908 5908 5909 5909 5909 5910 5911 5910 5910 5910 5910 5910 5910 5910 5910 5910 5910 5911 5911 5912 5912 5913 5914 5915 5916 5917 5918 5918 5919 5919 5919 5918 5918 5918 5918 5917 5917 5917 5916 5916 5916 5916 5916 5916 5916 5916 5915 5915 5914 5913 5912 5912 5912
5891 5891 5891 5890 5890 5890 5890 5889 5889 5890 5890 5890 5890 5891 5890 5890 5891 5893 5894 5895 5895 5897 5898 5900 5900 5901 5902 5902 5903 5904 5904 5904 5904 5904 5905 5906 5906 5906 5907 5907 5908 5908 5908 5909 5909 5909 5909 5909 5909 5910 5910 5910 5910 5910 5910 5910 5910 5910 5910 5910 5911 5911 5912 5912 5913 5914 5915 5916 5917 5918 5919 5919 5919 5919 5919 5919 5918 5918 5918 5917 5917 5917 5916 5917 5917 5917 5916 5916 5916 5915 5915 5914 5913 5913 5912 5912 5912
5892 5892 5891 5891 5890 5890 5890 5889 5889 5889 5890 5890 5890 5890 5890 5891 5891 5892 5894 5895 5895 5897 5899 5900 5901 5902 5902 5903 5904 5904 5905 5905 5904 5904 5905 5906 5907 5907 5907 5908 5908 5909 5909 5910 5910 5910 5910 5910 5910 5910 5911 5911 5910 5910 5910 5910 5911 5911 5911 5911 5912 5912 5912 5913 5914 5915 5916 5917 5918 5919 5919 5919 5919 5919 5919 5919 5919 5918 5918 5917 5917 5917 5917 5917 5917 5917 5917 5916 5916 5915 5915 5914 5914 5913 5912 5912 5912
5893 5892 5892 5891 5891 5890 5889 5889 5889 5889 5889 5889 5889 5889 5890 5891 5891 5892 5894 5895 5895 5896 5899 5900 5901 5902 5903 5904 5904 5904 5906 5906 5905 5904 5905 5907 5907 5908 5908 5908 5908 5909 5910 5911 5911 5911 5911 5911 5911 5911 5911 5911 5911 5911 5911 5911 5911 5912 5912 5912 5913 5913 5914 5915 5915 5916 5917 5918 5918 5919 5919 5919 5919 5919 5919 5919 5918 5918 5918 5918 5918 5918 5918 5917 5917 5917 5917 5916 5916 5915 5914 5914 5914 5913 5912 5912 5911
5893 5893 5892 5891 5891 5890 5889 5889 5889 5889 5889 5889 5889 5889 5889 5890 5890 5892 5893 5894 5895 5897 5899 5900 5901 5902 5902 5903 5903 5905 5906 5906 5906 5905 5905 5907 5907 5908 5909 5909 5909 5910 5911 5912 5912 5912 5912 5912 5913 5913 5912 5912 5912 5912 5912 5912 5912 5912 5913 5914 5914 5915 5915 5916 5917 5917 5918 5918 5919 5919 5919 5920 5920 5920 5919 5919 5919 5919 5919 5919 5919 5918 5918 5918 5917 5917 5917 5916 5916 5915 5914 5914 5913 5913 5912 5912 5911
5893 5893 5892 5891 5891 5890 5889 5889 5889 5889 5889 5889 5889 5888 5888 5889 5890 5891 5893 5893 5895 5897 5899 5900 5901 5901 5902 5903 5903 5905 5906 5906 5906 5906 5905 5907 5908 5908 5909 5909 5909 5910 5911 5912 5913 5913 5914 5914 5914 5914 5914 5913 5913 5913 5913 5913 5913 5913 5914 5915 5915 5916 5916 5917 5917 5918 5918 5919 5919 5919 5920 5920 5920 5920 5920 5919 5919 5919 5919 5919 5919 5919 5918 5918 5918 5917 5917 5916 5916 5915 5914 5914 5913 5913 5912 5911 5911
5894 5893 5892 5891 5891 5890 5890 5889 5889 5889 5888 5889 5889 5888 5888 5889 5890 5891 5893 5894 5895 5897 5899 5900 5900 5901 5902 5903 5904 5905 5905 5905 5905 5906 5905 5906 5908 5908 5909 5910 5910 5911 5912 5913 5914 5914 5914 5915 5915 5915 5915 5914 5914 5914 5914 5914 5914 5914 5915 5915 5916 5917 5917 5918 5918 5919 5919 5919 5920 5920 5920 5920 5920 5920 5920 5920 5920 5920 5920 5920 5919 5919 5919 5918 5918 5918 5917 5917 5916 5915 5915 5914 5914 5913 5912 5911 5911
5894 5894 5893 5892 5891 5891 5890 5889 5889 5888 5888 5889 5889 5888 5888 5889 5890 5891 5893 5894 5896 5897 5899 5901 5901 5901 5903 5903 5904 5905 5905 5904 5905 5906 5906 5907 5909 5908 5909 5910 5910 5911 5912 5913 5914 5915 5915 5915 5916 5916 5916 5916 5915 5915 5915 5915 5915 5915 5916 5916 5917 5917 5918 5918 5919 5919 5919 5920 5920 5920 5920 5920 5920 5920 5920 5920 5920 5920 5920 5920 5919 5919 5919 5919 5918 5918 5917 5917 5916 5915 5915 5914 5914 5913 5912 5911 5911
5895 5894 5893 5892 5891 5891 5890 5889 5889 5888 5889 5888 5889 5889 5888 5890 5890 5891 5892 5894 5896 5897 5899 5901 5902 5903 5904 5904 5904 5905 5904 5904 5905 5906 5906 5907 5909 5909 5909 5910 5911 5911 5912 5913 5914 5915 5916 5916 5916 5917 5917 5917 5917 5916 5916 5916 5916 5916 5917 5917 5917 5918 5918 5919 5919 5919 5920 5920 5920 5920 5920 5920 5920 5920 5920 5920 5920 5920 5919 5919 5919 5919 5919 5918 5918 5918 5917 5917 5916 5915 5915 5914 5914 5913 5913 5912 5910
5896 5895 5894 5893 5892 5891 5890 5889 5889 5888 5888 5888 5888 5889 5889 5890 5890 5891 5892 5894 5896 5897 5899 5901 5902 5903 5904 5904 5904 5905 5904 5904 5905 5906 5907 5908 5909 5910 5910 5911 5911 5911 5912 5914 5914 5915 5916 5917 5917 5917 5917 5918 5918 5918 5918 5917 5917 5917 5918 5918 5918 5918 5918 5919 5919 5919 5919 5920 5920 5920 5920 5920 5920 5920 5920 5920 5920 5919 5919 5919 5918 5918 5918 5918 5917 5917 5917 5917 5916 5915 5915 5914 5914 5913 5913 5912 5910
5897 5896 5895 5894 5893 5892 5891 5890 5889 5889 5888 5888 5888 5889 5890 5890 5890 5891 5892 5894 5896 5897 5898 5900 5901 5902 5903 5903 5904 5904 5904 5904 5905 5906 5907 5908 5909 5910 5910 5911 5912 5912 5912 5914 5915 5915 5916 5917 5917 5917 5918 5918 5918 5919 5919 5918 5918 5918 5918 5919 5919 5919 5919 5919 5919 5920 5920 5920 5920 5921 5921 5921 5921 5920 5920 5920 5919 5919 5919 5919 5918 5918 5918 5918 5918 5917 5917 5917 5916 5915 5914 5914 5913 5913 5912 5912 5911
5898 5897 5896 5895 5894 5892 5891 5890 5890 5889 5888 5888 5888 5889 5889 5890 5890 5890 5892 5894 5895 5896 5897 5898 5900 5901 5902 5903 5904 5904 5904 5905 5905 5906 5907 5908 5909 5910 5911 5912 5912 5913 5913 5914 5915 5915 5916 5917 5917 5917 5918 5918 5919 5919 5919 5919 5919 5919 5919 5919 5919 5919 5919 5920 5920 5920 5920 5920 5921 5921 5921 5921 5921 5920 5920 5920 5919 5919 5919 5919 5918 5918 5918 5918 5918 5918 5917 5916 5915 5915 5914 5913 5912 5912 5911 5911 5911
5898 5898 5897 5895 5894 5893 5892 5891 5890 5890 5889 5889 5889 5890 5888 5889 5890 5890 5892 5894 5894 5895 5896 5898 5899 5900 5902 5903 5903 5904 5904 5905 5906 5906 5907 5908 5909 5910 5911 5912 5913 5913 5913 5914 5915 5915 5915 5916 5917 5918 5918 5918 5919 5919 5919 5919 5919 5919 5919 5919 5919 5919 5920 5920 5920 5920 5921 5921 5921 5921 5921 5921 5920 5920 5920 5919 5919 5919 5919 5919 5918 5918 5918 5918 5919 5918 5917 5916 5915 5914 5914 5913 5912 5911 5911 5910 5909
5899 5898 5897 5896 5895 5894 5893 5892 5892 5891 5890 5890 5890 5891 5889 5888 5890 5891 5893 5894 5895 5896 5897 5898 5899 5901 5903 5903 5904 5905 5905 5905 5906 5907 5908 5908 5909 5911 5912 5912 5913 5914 5914 5914 5915 5916 5915 5916 5917 5918 5918 5918 5919 5919 5919 5919 5919 5919 5919 5919 5919 5919 5919 5920 5920 5920 5921 5921 5921 5921 5921 5921 5920 5920 5920 5919 5919 5919 5918 5918 5918 5918 5918 5919 5919 5917 5915 5915 5914 5914 5914 5913 5912 5911 5911 5910 5909
5900 5899 5898 5897 5896 5895 5894 5894 5893 5892 5891 5890 5890 5891 5890 5890 5891 5892 5894 5895 5896 5897 5898 5899 5900 5902 5904 5904 5905 5905 5905 5906 5907 5907 5908 5908 5909 5910 5912 5913 5913 5914 5915 5915 5915 5916 5916 5916 5917 5917 5918 5918 5919 5919 5919 5919 5920 5920 5919 5919 5918 5919 5919 5919 5920 5920 5921 5921 5921 5921 5921 5921 5920 5920 5920 5919 5919 5918 5918 5918 5918 5918 5918 5918 5918 5915 5914 5914 5914 5914 5913 5913 5911 5910 5910 5909 5908
5901 5900 5899 5897 5896 5896 5896 5895 5894 5893 5892 5891 5890 5891 5891 5891 5892 5894 5895 5896 5897 5898 5898 5899 5900 5902 5904 5905 5905 5905 5906 5906 5907 5907 5908 5909 5909 5910 5911 5912 5914 5914 5915 5915 5915 5916 5916 5916 5916 5917 5918 5918 5919 5919 5919 5919 5920 5920 5919 5919 5918 5918 5919 5919 5920 5920 5921 5921 5921 5921 5921 5921 5920 5920 5919 5919 5918 5918 5918 5918 5918 5918 5917 5917 5917 5915 5914 5914 5913 5913 5913 5912 5911 5910 5909 5908 5907
5902 5900 5899 5898 5897 5897 5897 5897 5896 5894 5893 5892 5891 5891 5892 5892 5893 5895 5896 5897 5898 5899 5899 5900 5900 5902 5904 5905 5905 5906 5906 5907 5907 5908 5908 5909 5909 5910 5911 5912 5913 5914 5915 5915 5915 5915 5916 5916 5917 5917 5918 5918 5919 5919 5919 5920 5919 5919 5919 5919 5919 5919 5919 5919 5920 5920 5921 5921 5921 5921 5921 5920 5920 5920 5919 5919 5918 5918 5918 5918 5918 5917 5917 5916 5917 5915 5914 5913 5912 5912 5912 5911 5910 5909 5908 5908 5907
5902 5901 5900 5899 5898 5899 5899 5899 5898 5896 5894 5893 5893 5893 5893 5894 5895 5896 5897 5898 5899 5899 5899 5899 5900 5902 5904 5905 5905 5906 5906 5907 5908 5908 5909 5909 5909 5910 5911 5912 5913 5914 5915 5915 5916 5916 5916 5916 5917 5917 5917 5918 5919 5919 5919 5919 5919 5919 5920 5919 5919 5919 5919 5920 5920 5921 5921 5921 5921 5921 5921 5920 5920 5920 5919 5919 5918 5918 5917 5917 5917 5917 5916 5916 5916 5914 5912 5912 5912 5912 5911 5910 5909 5908 5907 5906 5906
5904 5902 5901 5900 5900 5901 5901 5901 5900 5899 5897 5896 5895 5895 5895 5895 5896 5897 5897 5899 5899 5900 5899 5899 5900 5901 5903 5904 5905 5906 5907 5907 5908 5908 5909 5909 5909 5910 5911 5912 5914 5914 5915 5915 5916 5916 5916 5916 5917 5917 5917 5918 5919 5920 5920 5920 5920 5920 5920 5920 5920 5920 5920 5920 5920 5921 5921 5921 5921 5921 5921 5920 5920 5919 5919 5919 5918 5917 5917 5916 5916 5916 5916 5915 5915 5914 5912 5911 5911 5911 5910 5909 5908 5907 5905 5904 5904
5905 5904 5902 5902 5902 5902 5903 5902 5902 5901 5899 5898 5898 5897 5897 5897 5897 5897 5898 5898 5899 5899 5899 5899 5899 5901 5902 5904 5905 5906 5906 5907 5908 5908 5909 5909 5910 5910 5911 5912 5914 5915 5915 5915 5916 5916 5916 5916 5917 5917 5918 5918 5919 5920 5920 5920 5920 5920 5920 5920 5920 5920 5920 5920 5921 5921 5921 5921 5921 5921 5921 5920 5920 5919 5919 5918 5918 5917 5916 5916 5915 5915 5915 5915 5914 5913 5911 5910 5910 5909 5908 5908 5907 5905 5904 5903 5903
5907 5905 5904 5903 5903 5904 5904 5903 5903 5902 5901 5900 5900 5900 5899 5899 5899 5899 5898 5899 5899 5899 5899 5899 5899 5900 5901 5902 5905 5906 5906 5907 5908 5908 5909 5910 5911 5911 5912 5913 5914 5915 5915 5915 5916 5916 5917 5917 5917 5917 5918 5919 5919 5920 5921 5921 5921 5921 5921 5921 5921 5921 5921 5921 5921 5921 5921 5921 5921 5921 5921 5920 5920 5919 5918 5918 5917 5916 5916 5915 5914 5914 5914 5914 5914 5914 5912 5911 5910 5908 5907 5906 5905 5904 5903 5902 5902
5908 5907 5906 5905 5905 5906 5906 5905 5904 5903 5903 5902 5901 5901 5901 5901 5901 5900 5900 5899 5899 5899 5900 5899 5899 5900 5900 5902 5904 5905 5906 5907 5908 5909 5910 5911 5911 5912 5913 5914 5914 5915 5915 5916 5916 5917 5917 5917 5917 5918 5918 5919 5919 5920 5921 5921 5921 5921 5921 5921 5921 5921 5921 5921 5921 5920 5920 5920 5921 5921 5920 5920 5919 5919 5918 5917 5917 5916 5915 5914 5914 5913 5913 5913 5913 5913 5912 5910 5909 5907 5905 5905 5904 5903 5902 5901 5901
5910 5909 5907 5907 5907 5908 5908 5907 5906 5904 5904 5904 5903 5902 5902 5902 5902 5902 5901 5901 5900 5900 5900 5900 5900 5900 5901 5903 5904 5906 5907 5908 5909 5910 5911 5912 5912 5913 5913 5914 5914 5915 5916 5916 5917 5917 5917 5918 5918 5918 5918 5918 5919 5920 5920 5921 5921 5921 5921 5921 5921 5921 5921 5921 5921 5920 5920 5920 5920 5920 5920 5919 5919 5918 5918 5917 5916 5916 5915 5914 5913 5912 5911 5911 5911 5910 5909 5908 5907 5905 5904 5904 5903 5901 5901 5900 5899
5912 5911 5910 5909 5909 5910 5910 5909 5908 5906 5905 5905 5905 5904 5904 5903 5903 5903 5902 5902 5901 5901 5901 5901 5902 5902 5902 5904 5905 5907 5908 5909 5910 5911 5912 5913 5914 5914 5915 5915 5915 5915 5916 5917 5918 5918 5918 5919 5919 5919 5919 5919 5919 5920 5920 5921 5921 5920 5921 5921 5921 5921 5921 5921 5921 5920 5920 5919 5919 5919 5919 5919 5918 5918 5917 5917 5916 5915 5915 5914 5912 5911 5910 5910 5909 5908 5907 5906 5906 5905 5903 5903 5902 5901 5900 5899 5898
5913 5913 5912 5912 5911 5911 5912 5911 5910 5908 5907 5906 5906 5906 5905 5905 5904 5903 5903 5903 5903 5902 5902 5903 5904 5904 5904 5905 5906 5908 5909 5910 5912 5912 5914 5915 5915 5915 5916 5916 5916 5916 5917 5918 5918 5919 5919 5920 5920 5920 5920 5919 5919 5919 5919 5920 5920 5920 5920 5920 5920 5920 5920 5920 5920 5920 5920 5919 5919 5919 5919 5918 5918 5917 5917 5916 5916 5915 5914 5913 5912 5910 5909 5908 5908 5907 5906 5905 5905 5904 5903 5902 5901 5900 5899 5898 5898
5915 5914 5914 5914 5913 5913 5913 5913 5912 5910 5909 5908 5907 5907 5907 5906 5905 5905 5904 5904 5904 5904 5904 5905 5906 5906 5907 5907 5908 5909 5910 5912 5913 5914 5915 5916 5916 5916 5916 5916 5916 5916 5917 5918 5918 5918 5919 5919 5919 5919 5919 5920 5919 5919 5919 5919 5919 5919 5919 5919 5920 5920 5920 5920 5920 5920 5919 5919 5918 5918 5918 5917 5917 5916 5916 5916 5915 5914 5913 5912 5910 5910 5909 5908 5907 5906 5905 5905 5904 5904 5903 5902 5900 5898 5898 5898 5897
5916 5916 5916 5916 5915 5914 5914 5914 5914 5912 5911 5909 5908 5908 5908 5907 5907 5906 5906 5906 5906 5906 5906 5907 5907 5908 5909 5909 5909 5909 5910 5911 5913 5914 5914 5914 5915 5915 5915 5915 5915 5915 5916 5916 5917 5917 5918 5918 5918 5918 5919 5919 5919 5918 5918 5918 5919 5919 5919 5919 5919 5919 5920 5920 5919 5919 5919 5919 5918 5918 5917 5917 5916 5916 5915 5915 5914 5913 5911 5910 5910 5909 5909 5908 5907 5905 5905 5904 5904 5903 5902 5901 5899 5898 5897 5897 5896
5917 5917 5917 5916 5916 5916 5915 5915 5915 5914 5912 5911 5909 5909 5909 5908 5908 5908 5907 5907 5907 5908 5907 5908 5909 5910 5910 5909 5909 5909 5909 5910 5910 5911 5911 5911 5912 5912 5913 5913 5913 5914 5914 5915 5915 5916 5916 5917 5917 5917 5918 5918 5918 5918 5918 5918 5918 5919 5919 5919 5919 5919 5919 5919 5919 5919 5918 5918 5918 5917 5917 5916 5915 5915 5914 5913 5912 5911 5910 5910 5909 5909 5908 5907 5906 5905 5904 5904 5903 5902 5901 5899 5898 5897 5896 5895 5894
5918 5917 5917 5917 5916 5916 5916 5916 5916 5915 5914 5912 5911 5910 5910 5910 5909 5909 5908 5908 5908 5909 5908 5909 5910 5910 5910 5910 5909 5908 5908 5908 5908 5908 5908 5909 5909 5910 5911 5912 5912 5913 5913 5913 5914 5914 5915 5915 5916 5916 5916 5917 5917 5917 5918 5918 5918 5918 5918 5918 5918 5918 5918 5918 5918 5918 5918 5917 5917 5917 5916 5915 5914 5914 5913 5912 5911 5910 5910 5909 5909 5908 5908 5907 5905 5904 5903 5902 5901 5900 5900 5898 5896 5896 5894 5893 5892
5919 5918 5918 5917 5917 5916 5916 5916 5917 5916 5916 5914 5913 5912 5911 5911 5910 5910 5909 5909 5909 5910 5910 5910 5910 5910 5909 5909 5909 5908 5908 5908 5907 5907 5908 5908 5909 5910 5911 5911 5911 5912 5912 5912 5913 5913 5914 5914 5914 5914 5915 5915 5916 5916 5916 5917 5917 5917 5917 5917 5917 5917 5917 5916 5916 5916 5916 5916 5916 5915 5915 5914 5914 5913 5912 5911 5910 5909 5909 5909 5908 5907 5907 5906 5904 5903 5901 5900 5899 5899 5898 5897 5896 5894 5893 5891 5890
5920 5919 5919 5918 5918 5917 5917 5916 5917 5917 5917 5916 5914 5914 5912 5912 5911 5911 5911 5910 5910 5911 5911 5910 5910 5909 5908 5909 5909 5908 5908 5908 5908 5907 5907 5907 5907 5908 5909 5910 5910 5910 5911 5912 5912 5912 5912 5912 5912 5912 5913 5913 5914 5914 5915 5915 5916 5916 5915 5915 5915 5915 5915 5915 5915 5914 5914 5914 5914 5914 5914 5913 5913 5911 5910 5909 5908 5908 5908 5907 5907 5906 5905 5904 5903 5901 5900 5898 5898 5897 5896 5895 5894 5893 5891 5890 5888
5920 5920 5919 5919 5919 5918 5918 5917 5917 5917 5917 5917 5916 5915 5914 5913 5912 5912 5912 5912 5912 5912 5911 5911 5910 5909 5908 5908 5908 5908 5908 5908 5908 5907 5906 5905 5905 5905 5906 5907 5908 5908 5909 5909 5910 5911 5911 5911 5911 5911 5911 5912 5913 5913 5913 5913 5913 5913 5913 5913 5913 5913 5913 5913 5913 5912 5912 5911 5912 5912 5912 5911 5911 5910 5909 5908 5907 5907 5906 5906 5905 5905 5904 5902 5901 5900 5898 5897 5896 5895 5895 5894 5893 5892 5890 5889 5887
5920 5920 5920 5920 5920 5920 5919 5919 5918 5917 5918 5918 5917 5916 5915 5914 5914 5913 5913 5913 5913 5913 5912 5911 5910 5909 5908 5908 5907 5907 5907 5908 5907 5906 5905 5904 5903 5904 5904 5905 5905 5906 5906 5907 5908 5909 5909 5909 5909 5910 5910 5911 5911 5912 5912 5911 5911 5911 5911 5911 5911 5911 5910 5910 5911 5910 5909 5909 5909 5909 5909 5908 5908 5907 5907 5906 5906 5906 5906 5905 5904 5903 5902 5901 5900 5898 5897 5896 5895 5894 5893 5893 5891 5890 5889 5888 5887
5921 5921 5921 5921 5921 5920 5920 5920 5919 5918 5918 5918 5918 5917 5917 5916 5915 5914 5914 5914 5914 5913 5913 5912 5911 5909 5908 5907 5906 5906 5906 5906 5906 5905 5904 5904 5903 5903 5903 5903 5904 5904 5905 5905 5906 5906 5907 5907 5907 5908 5908 5909 5910 5910 5910 5909 5909 5909 5909 5909 5910 5909 5908 5908 5908 5908 5907 5907 5906 5906 5905 5905 5905 5905 5905 5905 5905 5904 5904 5903 5902 5901 5900 5899 5898 5896 5895 5894 5894 5893 5892 5891 5890 5889 5889 5887 5886
5921 5921 5921 5921 5921 5921 5921 5921 5921 5920 5919 5919 5919 5918 5918 5917 5916 5915 5915 5915 5914 5914 5913 5912 5911 5910 5908 5907 5906 5905 5905 5905 5904 5904 5903 5903 5903 5902 5902 5902 5902 5903 5903 5903 5904 5904 5904 5904 5905 5906 5907 5908 5908 5908 5908 5907 5907 5908 5908 5908 5908 5908 5907 5907 5907 5907 5906 5905 5905 5904 5904 5904 5904 5904 5903 5903 5903 5903 5902 5902 5901 5899 5898 5897 5896 5894 5893 5893 5892 5892 5891 5890 5889 5889 5888 5887 5886
5921 5922 5922 5922 5922 5922 5922 5922 5922 5921 5921 5920 5919 5919 5919 5918 5917 5916 5916 5916 5915 5914 5913 5912 5910 5909 5908 5907 5906 5905 5904 5904 5903 5903 5902 5902 5902 5902 5901 5901 5901 5901 5901 5902 5902 5902 5901 5902 5903 5904 5905 5906 5906 5906 5906 5906 5907 5906 5906 5906 5906 5905 5905 5905 5905 5904 5904 5904 5903 5903 5902 5902 5903 5902 5902 5902 5901 5900 5900 5900 5899 5897 5896 5895 5894 5892 5892 5891 5891 5890 5890 5889 5889 5888 5887 5886 5885
5922 5922 5922 5922 5922 5922 5922 5923 5923 5922 5922 5922 5920 5920 5920 5919 5919 5918 5917 5917 5916 5915 5913 5912 5910 5909 5908 5907 5906 5905 5904 5904 5903 5902 5901 5901 5901 5901 5901 5901 5901 5901 5901 5901 5901 5900 5900 5900 5901 5902 5903 5903 5904 5904 5905 5905 5904 5903 5903 5903 5902 5902 5903 5903 5903 5902 5902 5902 5902 5902 5901 5901 5901 5901 5900 5899 5899 5898 5897 5897 5896 5895 5894 5893 5892 5891 5890 5890 5889 5889 5889 5888 5888 5888 5887 5886 5885
5922 5922 5922 5922 5922 5922 5923 5923 5923 5923 5923 5923 5922 5921 5920 5920 5919 5919 5918 5917 5917 5915 5914 5912 5910 5909 5907 5906 5905 5904 5904 5903 5902 5901 5900 5900 5900 5901 5901 5901 5901 5901 5901 5901 5900 5899 5899 5899 5900 5901 5902 5902 5903 5903 5903 5902 5901 5900 5900 5900 5900 5900 5900 5900 5901 5900 5900 5900 5900 5900 5900 5900 5899 5898 5898 5897 5896 5896 5895 5895 5894 5893 5892 5891 5891 5890 5889 5888 5888 5887 5887 5888 5888 5887 5886 5886 5885
5921 5922 5922 5923 5922 5922 5923 5923 5923 5923 5923 5923 5923 5922 5921 5920 5919 5919 5918 5918 5917 5916 5914 5912 5911 5909 5907 5906 5905 5904 5903 5902 5901 5900 5900 5899 5899 5900 5900 5901 5901 5901 5901 5900 5899 5898 5898 5898 5899 5900 5901 5902 5902 5901 5900 5899 5899 5899 5899 5899 5898 5898 5897 5897 5898 5898 5897 5897 5897 5898 5897 5897 5897 5896 5896 5895 5894 5894 5893 5892 5891 5891 5890 5889 5889 5888 5887 5886 5886 5886 5886 5887 5887 5887 5886 5885 5885
5921 5922 5922 5922 5922 5923 5923 5923 5923 5923 5923 5924 5923 5923 5922 5921 5920 5919 5919 5918 5918 5916 5915 5913 5911 5909 5907 5906 5904 5903 5902 5900 5900 5900 5899 5898 5898 5898 5899 5900 5900 5900 5899 5898 5896 5896 5897 5898 5900 5901 5902 5901 5900 5899 5898 5898 5898 5898 5898 5897 5896 5895 5895 5894 5895 5895 5894 5893 5894 5895 5895 5894 5894 5895 5895 5893 5892 5892 5891 5890 5889 5888 5888 5887 5887 5887 5886 5885 5884 5885 5886 5886 5886 5886 5886 5885 5885
5921 5922 5922 5922 5922 5923 5924 5924 5924 5924 5924 5924 5924 5923 5923 5922 5921 5920 5919 5919 5918 5917 5915 5913 5911 5909 5908 5906 5905 5903 5901 5900 5900 5899 5898 5898 5897 5896 5897 5898 5899 5898 5897 5895 5894 5895 5896 5899 5901 5902 5901 5899 5898 5897 5898 5898 5897 5896 5896 5895 5894 5893 5893 5892 5892 5892 5891 5891 5892 5892 5893 5893 5893 5893 5893 5892 5891 5890 5889 5889 5887 5886 5886 5885 5885 5884 5884 5883 5884 5884 5885 5885 5886 5886 5885 5885 5884
5921 5922 5922 5922 5922 5923 5923 5924 5924 5924 5924 5924 5924 5924 5923 5922 5921 5920 5920 5920 5919 5917 5915 5913 5912 5910 5908 5906 5905 5903 5901 5900 5899 5899 5899 5898 5897 5896 5896 5897 5897 5897 5895 5894 5894 5894 5897 5900 5902 5901 5899 5896 5896 5897 5897 5897 5895 5894 5894 5893 5892 5891 5891 5890 5889 5889 5888 5888 5889 5890 5890 5891 5891 5891 5891 5891 5890 5889 5888 5887 5886 5885 5884 5884 5883 5883 5882 5882 5883 5883 5884 5884 5885 5885 5885 5884 5884
5922 5923 5922 5922 5922 5923 5924 5924 5924 5924 5925 5925 5924 5924 5924 5923 5921 5920 5920 5920 5919 5918 5916 5914 5912 5910 5909 5907 5905 5903 5902 5901 5900 5899 5898 5898 5897 5897 5896 5896 5896 5895 5894 5894 5894 5895 5897 5900 5902 5900 5896 5894 5895 5897 5896 5894 5893 5893 5892 5891 5890 5889 5888 5888 5887 5886 5885 5885 5886 5887 5888 5889 5889 5889 5890 5889 5888 5887 5886 5886 5885 5884 5883 5883 5882 5882 5882 5882 5882 5883 5883 5883 5884 5884 5884 5884 5883
5923 5922 5921 5921 5922 5923 5924 5924 5924 5924 5925 5925 5925 5924 5924 5923 5922 5921 5921 5920 5920 5918 5916 5914 5912 5911 5910 5908 5906 5904 5902 5901 5900 5899 5899 5898 5898 5898 5897 5897 5896 5895 5895 5895 5895 5896 5898 5901 5902 5899 5895 5893 5895 5896 5895 5892 5892 5892 5891 5889 5888 5887 5886 5886 5885 5884 5883 5882 5884 5884 5885 5886 5888 5889 5888 5887 5886 5886 5886 5886 5885 5883 5883 5882 5882 5881 5881 5881 5882 5882 5882 5882 5883 5883 5883 5882 5882
5923 5921 5921 5921 5922 5923 5924 5924 5924 5924 5924 5925 5925 5925 5924 5924 5923 5922 5921 5921 5920 5918 5916 5915 5913 5911 5910 5909 5907 5905 5904 5902 5902 5901 5900 5900 5899 5899 5898 5898 5898 5897 5897 5897 5897 5897 5898 5900 5901 5899 5895 5893 5893 5895 5895 5893 5892 5891 5890 5888 5887 5886 5885 5885 5884 5883 5882 5882 5883 5884 5884 5885 5886 5888 5887 5885 5885 5885 5886 5885 5884 5883 5882 5882 5881 5881 5881 5881 5881 5882 5881 5881 5881 5881 5881 5881 5880
5922 5921 5921 5922 5922 5923 5924 5924 5924 5924 5925 5925 5925 5925 5924 5924 5923 5922 5922 5921 5920 5919 5917 5915 5914 5912 5911 5909 5908 5906 5905 5904 5903 5903 5902 5902 5901 5901 5900 5900 5900 5899 5899 5898 5898 5898 5898 5899 5900 5899 5897 5895 5894 5893 5893 5893 5891 5890 5889 5889 5887 5886 5885 5885 5885 5884 5883 5883 5885 5885 5885 5885 5886 5886 5885 5884 5884 5885 5885 5884 5883 5882 5882 5881 5880 5880 5880 5881 5881 5881 5880 5880 5880 5880 5880 5879 5879
5921 5921 5921 5922 5922 5923 5923 5923 5923 5924 5925 5925 5925 5925 5925 5924 5923 5922 5922 5922 5920 5919 5918 5916 5914 5913 5911 5910 5909 5907 5906 5905 5904 5904 5904 5903 5903 5903 5903 5902 5902 5901 5901 5900 5900 5899 5899 5899 5899 5899 5899 5897 5896 5894 5893 5893 5892 5890 5889 5889 5888 5887 5886 5885 5885 5884 5884 5884 5885 5885 5885 5885 5885 5885 5884 5884 5884 5884 5884 5883 5882 5882 5881 5881 5881 5881 5881 5881 5880 5880 5879 5879 5878 5878 5878 5877 5877
5920 5920 5921 5922 5923 5923 5924 5924 5924 5924 5925 5925 5926 5926 5925 5924 5923 5923 5923 5922 5921 5920 5918 5917 5915 5914 5912 5911 5909 5908 5907 5906 5905 5905 5905 5905 5905 5904 5904 5904 5903 5903 5903 5902 5902 5901 5900 5900 5899 5899 5899 5898 5897 5896 5895 5894 5893 5892 5891 5890 5889 5889 5888 5887 5886 5886 5886 5886 5886 5886 5885 5885 5885 5884 5884 5884 5884 5884 5883 5883 5882 5882 5882 5881 5881 5881 5881 5880 5879 5879 5878 5877 5877 5876 5875 5875 5874
5920 5920 5921 5922 5923 5923 5923 5923 5924 5924 5925 5925 5926 5926 5925 5924 5923 5924 5923 5922 5921 5920 5919 5917 5916 5915 5913 5912 5910 5909 5908 5907 5907 5906 5906 5906 5906 5906 5906 5905 5905 5905 5904 5904 5903 5903 5902 5901 5900 5900 5899 5899 5898 5897 5897 5896 5895 5894 5893 5892 5892 5891 5890 5890 5889 5888 5888 5887 5887 5886 5886 5886 5886 5885 5884 5884 5884 5883 5883 5882 5882 5882 5882 5881 5881 5881 5880 5879 5878 5877 5877 5876 5875 5874 5873 5873 5872
5918 5919 5920 5922 5922 5923 5923 5923 5924 5925 5925 5925 5925 5925 5925 5924 5924 5924 5924 5923 5922 5921 5919 5918 5917 5916 5914 5913 5912 5910 5909 5909 5908 5908 5907 5907 5908 5908 5907 5907 5907 5906 5905 5905 5904 5903 5903 5902 5901 5901 5900 5899 5898 5898 5897 5896 5896 5895 5894 5894 5893 5893 5892 5891 5891 5890 5889 5889 5888 5888 5887 5887 5886 5885 5884 5883 5883 5882 5882 5881 5881 5881 5881 5881 5881 5880 5879 5878 5877 5876 5875 5875 5874 5873 5872 5871 5870
5917 5918 5920 5921 5922 5922 5922 5923 5924 5924 5925 5925 5925 5925 5925 5925 5925 5924 5924 5923 5922 5921 5920 5919 5918 5917 5915 5914 5913 5912 5911 5910 5910 5909 5909 5909 5909 5909 5908 5908 5907 5907 5906 5905 5904 5904 5903 5902 5902 5901 5900 5899 5899 5898 5897 5896 5896 5895 5895 5894 5893 5893 5892 5891 5891 5890 5890 5889 5888 5888 5887 5887 5886 5885 5884 5883 5883 5882 5881 5881 5881 5881 5880 5880 5879 5879 5878 5876 5875 5874 5873 5872 5872 5870 5869 5868 5867
5916 5918 5919 5920 5921 5921 5922 5923 5924 5924 5925 5925 5925 5926 5925 5925 5925 5924 5924 5923 5922 5921 5920 5919 5918 5917 5916 5915 5914 5913 5912 5912 5911 5910 5910 5910 5909 5909 5909 5908 5908 5907 5906 5905 5904 5904 5903 5903 5902 5901 5900 5899 5898 5898 5897 5896 5895 5895 5894 5893 5892 5892 5891 5891 5890 5890 5889 5888 5887 5887 5886 5886 5885 5885 5884 5884 5883 5882 5881 5880 5880 5880 5879 5879 5878 5877 5876 5875 5874 5873 5871 5870 5869 5868 5867 5865 5864
5915 5917 5918 5919 5920 5920 5921 5922 5923 5924 5925 5925 5925 5926 5926 5925 5925 5924 5924 5923 5923 5922 5920 5919 5918 5917 5916 5916 5915 5915 5914 5913 5912 5911 5911 5910 5910 5909 5909 5908 5907 5907 5906 5905 5904 5904 5903 5902 5902 5901 5899 5899 5898 5897 5896 5895 5894 5893 5893 5892 5891 5891 5890 5890 5889 5888 5888 5887 5887 5886 5885 5885 5885 5884 5884 5883 5882 5881 5880 5880 5879 5878 5877 5877 5876 5875 5874 5873 5872 5870 5869 5868 5866 5865 5864 5863 5861
5914 5915 5916 5918 5920 5920 5921 5922 5923 5924 5924 5924 5925 5926 5926 5925 5925 5924 5924 5923 5923 5922 5920 5919 5918 5918 5917 5917 5916 5916 5915 5914 5913 5912 5911 5911 5910 5909 5909 5908 5907 5907 5906 5905 5904 5903 5902 5902 5901 5900 5899 5898 5898 5897 5896 5895 5894 5893 5892 5891 5891 5890 5890 5889 5888 5888 5887 5887 5886 5886 5885 5884 5883 5883 5882 5881 5881 5880 5879 5878 5877 5876 5875 5874 5874 5872 5871 5870 5869 5868 5867 5865 5863 5862 5861 5860 5858
5913 5914 5916 5917 5919 5920 5921 5921 5922 5923 5924 5924 5925 5926 5926 5925 5925 5925 5924 5924 5923 5922 5920 5919 5919 5918 5918 5918 5917 5917 5915 5914 5913 5913 5912 5911 5910 5910 5909 5908 5907 5906 5905 5904 5903 5903 5902 5901 5901 5900 5899 5899 5899 5898 5897 5895 5894 5893 5892 5891 5890 5890 5889 5888 5888 5887 5887 5886 5886 5885 5884 5883 5882 5881 5881 5880 5879 5878 5877 5876 5875 5875 5874 5873 5872 5871 5869 5868 5867 5865 5864 5862 5861 5859 5858 5856 5855
5912 5913 5915 5917 5918 5919 5920 5921 5921 5923 5923 5924 5925 5925 5925 5925 5925 5925 5924 5924 5923 5922 5921 5920 5919 5919 5918 5918 5918 5917 5916 5915 5914 5914 5913 5912 5911 5910 5909 5908 5907 5906 5905 5904 5903 5903 5902 5901 5901 5900 5900 5900 5899 5898 5897 5896 5895 5893 5892 5891 5890 5890 5889 5888 5888 5887 5886 5886 5885 5884 5883 5882 5881 5881 5880 5879 5878 5877 5876 5875 5874 5873 5872 5871 5870 5869 5868 5866 5864 5863 5861 5860 5858 5857 5855 5853 5852
5910 5912 5914 5916 5918 5919 5920 5920 5921 5922 5923 5924 5925 5925 5925 5925 5925 5925 5924 5924 5923 5922 5921 5920 5920 5919 5919 5918 5918 5917 5916 5915 5914 5914 5913 5912 5911 5910 5909 5908 5907 5906 5905 5904 5903 5902 5902 5901 5901 5900 5900 5900 5899 5899 5898 5897 5895 5894 5893 5892 5891 5890 5889 5888 5887 5887 5886 5885 5884 5883 5882 5881 5880 5879 5879 5878 5877 5876 5875 5874 5873 5872 5871 5870 5869 5867 5866 5864 5862 5861 5859 5857 5855 5853 5851 5850 5848